GATCU FPPR-FGSL

Flight info

Callsign GATCU
Flight time N/A
Altitude 2500
Route VFR DCT
Aircraft BN2/L-V/N

Departure

Time 2026-05-04 18:08
Airport Principe Airport (FPPR)

Arrival

Time N/A
Airport Malabo International Airport (FGSL)
Time Latitude Longitude Altitude Speed Heading
2026-05-04 17:40 1.66538 7.41204 583 ft 0 kts 235°
2026-05-04 18:01 1.66535 7.41201 582 ft 2 kts 221°
2026-05-04 18:01 1.66531 7.41198 582 ft 0 kts 210°
2026-05-04 18:01 1.66528 7.41197 582 ft 2 kts 209°
2026-05-04 18:02 1.66496 7.41185 581 ft 1 kts 218°
2026-05-04 18:02 1.66482 7.41155 581 ft 6 kts 259°
2026-05-04 18:02 1.66477 7.41128 581 ft 2 kts 257°
2026-05-04 18:02 1.66462 7.41104 581 ft 6 kts 202°
2026-05-04 18:03 1.66405 7.41101 582 ft 11 kts 180°
2026-05-04 18:03 1.66165 7.41097 584 ft 56 kts 180°
2026-05-04 18:03 1.65705 7.41091 646 ft 68 kts 182°
2026-05-04 18:03 1.65261 7.40999 797 ft 63 kts 186°
2026-05-04 18:04 1.64795 7.40882 799 ft 80 kts 192°
2026-05-04 18:04 1.64244 7.40952 856 ft 84 kts 150°
2026-05-04 18:04 1.64120 7.42254 656 ft 120 kts 60°
2026-05-04 18:05 1.64594 7.42903 701 ft 111 kts 65°
2026-05-04 18:05 1.64800 7.43672 591 ft 117 kts 77°
2026-05-04 18:05 1.65178 7.44359 698 ft 105 kts 58°
2026-05-04 18:05 1.65497 7.45051 558 ft 115 kts 90°
2026-05-04 18:06 1.64924 7.46168 849 ft 86 kts 118°
2026-05-04 18:06 1.64899 7.46824 960 ft 81 kts 93°
2026-05-04 18:06 1.65072 7.47420 903 ft 102 kts 71°
2026-05-04 18:07 1.65355 7.48009 1069 ft 89 kts 78°
2026-05-04 18:07 1.65594 7.48657 1069 ft 98 kts 72°
2026-05-04 18:07 1.65978 7.49261 1081 ft 104 kts 52°
2026-05-04 18:07 1.66516 7.49769 1090 ft 108 kts 40°
2026-05-04 18:08 1.67130 7.50211 1090 ft 110 kts 40°
2026-05-04 18:08 1.67769 7.50656 1091 ft 112 kts 37°
2026-05-04 18:08 1.68422 7.51074 1142 ft 107 kts 36°
2026-05-04 18:08 1.69031 7.51461 1232 ft 101 kts 36°
2026-05-04 18:09 1.69995 7.52076 1386 ft 95 kts 37°
2026-05-04 18:09 1.70687 7.52514 1502 ft 93 kts 36°
2026-05-04 18:10 1.71233 7.52856 1595 ft 91 kts 36°
2026-05-04 18:10 1.71775 7.53193 1674 ft 92 kts 37°
2026-05-04 18:10 1.72327 7.53534 1747 ft 93 kts 36°
2026-05-04 18:10 1.72882 7.53882 1820 ft 94 kts 36°
2026-05-04 18:11 1.73433 7.54232 1892 ft 94 kts 37°
2026-05-04 18:11 1.73994 7.54587 1964 ft 95 kts 37°
2026-05-04 18:11 1.74563 7.54948 1993 ft 100 kts 37°
2026-05-04 18:11 1.75163 7.55331 1996 ft 105 kts 36°
2026-05-04 18:12 1.75796 7.55744 1994 ft 108 kts 36°
2026-05-04 18:12 1.76432 7.56157 1992 ft 110 kts 37°
2026-05-04 18:12 1.77087 7.56577 1991 ft 111 kts 36°
2026-05-04 18:12 1.77735 7.56998 1990 ft 112 kts 37°
2026-05-04 18:13 1.78391 7.57426 1991 ft 112 kts 37°
2026-05-04 18:13 1.79045 7.57853 1991 ft 112 kts 36°
2026-05-04 18:13 1.80352 7.58716 1991 ft 112 kts 36°
2026-05-04 18:14 1.81013 7.59155 1991 ft 112 kts 36°
2026-05-04 18:14 1.81658 7.59586 1991 ft 112 kts 37°
2026-05-04 18:14 1.82317 7.60025 1992 ft 112 kts 37°
2026-05-04 18:15 1.83621 7.60885 1995 ft 110 kts 37°
2026-05-04 18:15 1.84892 7.61716 2001 ft 107 kts 37°
2026-05-04 18:15 1.85511 7.62120 2003 ft 107 kts 37°
2026-05-04 18:16 1.86138 7.62528 2004 ft 106 kts 37°
2026-05-04 18:16 1.86764 7.62938 2003 ft 106 kts 37°
2026-05-04 18:16 1.87383 7.63342 2004 ft 106 kts 36°
2026-05-04 18:17 1.88553 7.64111 1976 ft 79 kts 37°
2026-05-04 18:17 1.88963 7.64436 1810 ft 76 kts 51°